Waterloo Municipal Airport
Tuesday 8:54 PM
Temperature58° (80°/51°)
Dew Point48°
Relative Humidity70
%
Visibility10
mi
Pressure1004.7
mb
Wind DirectionN
360°
Wind Speed8
mph
Precipitation Today0.00"

Last 30 Observations

Time PresWx Temp DP Feels RH% Vsby Pressure Ceiling Direction Speed 1h Precip
8:54 PM 48° 10
mi
1004.8
mb
N
360°
8
mph
0.00"
7:54 PM 62° 50° 65
%
10
mi
1004.1
mb
N
350°
8
mph
0.00"
6:54 PM 72° 52° 49
%
10
mi
1003.7
mb
NNW
340°
9
mph
0.00"
5:54 PM 77° 49° 37
%
10
mi
1003.4
mb
NW
320°
9
mph
0.00"
4:54 PM 79° 48° 34
%
10
mi
1003.1
mb
WNW
300°
9
mph
0.00"
3:54 PM 79° 52° 39
%
10
mi
1003.1
mb
WNW
300°
13
mph
0.00"
2:54 PM 79° 57° 47
%
10
mi
1003.1
mb
W
280°
13
mph
0.00"
1:54 PM 77° 57° 50
%
10
mi
1003.7
mb
WSW
240°
15
mph
0.00"
12:54 PM 74° 57° 56
%
10
mi
1004.1
mb
WSW
240°
16
mph
0.00"
11:54 AM 73° 58° 59
%
10
mi
1004.8
mb
SW
220°
11
mph
0.00"
11:07 AM 69° 58° 68
%
9
mi
1004.8
mb
SW
220°
14
mph
0.00"
10:54 AM 67° 58° 73
%
8
mi
1005.1
mb
1,200
ft
SSW
210°
11
mph
0.00"
10:26 AM HZ 65° 59° 81
%
6
mi
1005.4
mb
1,100
ft
SW
230°
8
mph
0.00"
9:54 AM BR 61° 57° 87
%
4
mi
1006.1
mb
700
ft
Calm 0.00"
8:54 AM BR 57° 55° 93
%
3
mi
1005.8
mb
500
ft
SSE
150°
7
mph
0.00"
8:29 AM BR 57° 55° 93
%
3
mi
1006.4
mb
600
ft
SE
130°
5
mph
0.00"
8:18 AM BR 56° 54° 93
%
mi
1006.4
mb
700
ft
SE
140°
3
mph
0.00"
8:07 AM BR 56° 54° 93
%
mi
1006.4
mb
700
ft
ESE
120°
3
mph
0.00"
7:54 AM FG 55° 53° 93
%
½
mi
1006.4
mb
700
ft
E
80°
6
mph
0.00"
7:28 AM FG 52° 50° 93
%
¼
mi
1006.4
mb
800
ft
Calm 0.00"
6:54 AM FG 53° 51° 93
%
¼
mi
1006.1
mb
400
ft
Calm 0.00"
6:30 AM BR 54° 52° 93
%
¾
mi
1005.4
mb
200
ft
S
180°
7
mph
0.00"
6:16 AM BR 54° 53° 97
%
mi
1005.4
mb
300
ft
S
180°
8
mph
0.00"
5:54 AM BR 55° 53° 93
%
mi
1005.8
mb
300
ft
SSE
160°
5
mph
0.00"
5:21 AM BR 55° 53° 93
%
4
mi
1005.8
mb
400
ft
S
190°
6
mph
0.00"
4:54 AM BR 54° 52° 93
%
3
mi
1005.8
mb
S
170°
7
mph
0.00"
4:39 AM BR 54° 52° 93
%
2
mi
1005.8
mb
S
170°
7
mph
0.00"
4:36 AM BR 54° 52° 93
%
mi
1006.1
mb
400
ft
SSE
160°
7
mph
0.00"
4:27 AM BR 53° 52° 96
%
¾
mi
1006.1
mb
300
ft
SSE
150°
6
mph
0.00"
4:02 AM FG 54° 53° 97
%
¼
mi
1006.4
mb
200
ft
SSE
160°
7
mph
0.00"